contact:dominique.lefevre@mio.osupytheas.fr, maurice.libes@osupytheas.fr, didier.mallarino@osupytheas.fr
Project:EMSO http://www.emso-fr.org/EMSO-France
Depth: 2436.0 m
Title:EMSO Ligure Ouest : Data MII capteur AQUADOPP
Date,Latitude,Longitude,X_East,Y_North,Z_Up,Amplitude_X,Amplitude_Y,Amplitude_Z,Batterie,SoundSpeed,Heading,Pitch,Roll,Pressure,TIS,Speed,Direction
, degrees North, degrees East, m.s-1, m.s-1,m.s-1, 1, 1, 1, Volt, m.s-1, degree, degree, degree, dbar, degree_C, m.s-1, degree
2022-12-17T00:04:03,42.805,6.029,0.011,-0.011,0.036,100.0,104.0,101.0,13.3,1505.2,316.5,-0.7,1.8,2471.244,13.28,0.015,135.0
2022-12-17T00:07:03,42.805,6.029,-0.003,-0.005,0.0,99.0,102.0,102.0,13.3,1505.2,328.5,-0.7,1.8,2471.239,13.28,0.005,211.0
2022-12-17T00:10:03,42.805,6.029,0.013,-0.019,0.006,101.0,103.0,101.0,13.3,1505.2,324.1,-0.8,1.8,2471.235,13.28,0.023,145.6
2022-12-17T00:13:03,42.805,6.029,0.019,-0.022,0.029,99.0,103.0,102.0,13.4,1505.2,324.2,-0.8,1.8,2471.237,13.28,0.029,139.2
2022-12-17T00:16:03,42.805,6.029,0.017,-0.019,0.043,101.0,103.0,101.0,13.3,1505.2,318.8,-0.8,1.8,2471.217,13.28,0.025,138.2
2022-12-17T00:19:03,42.805,6.029,0.035,-0.006,0.043,100.0,101.0,102.0,13.3,1505.2,319.2,-0.8,1.8,2471.228,13.28,0.035,99.7
2022-12-17T00:22:03,42.805,6.029,0.04,-0.007,0.061,101.0,103.0,101.0,13.3,1505.2,323.7,-0.8,1.8,2471.261,13.28,0.04,99.9
2022-12-17T00:25:03,42.805,6.029,0.025,-0.042,0.014,101.0,102.0,101.0,13.4,1505.2,328.3,-0.7,1.8,2471.242,13.28,0.048,149.2
2022-12-17T00:28:03,42.805,6.029,0.039,-0.031,0.003,101.0,101.0,101.0,13.4,1505.2,319.1,-0.7,1.8,2471.264,13.28,0.049,128.5
2022-12-17T00:31:03,42.805,6.029,0.017,-0.017,0.005,101.0,103.0,102.0,13.3,1505.2,321.2,-0.7,1.8,2471.242,13.28,0.024,135.0
2022-12-17T00:34:03,42.805,6.029,0.013,-0.005,0.044,101.0,102.0,101.0,13.3,1505.2,321.5,-0.8,1.8,2471.225,13.28,0.013,111.0
2022-12-17T00:37:03,42.805,6.029,0.039,-0.029,0.046,100.0,103.0,101.0,13.4,1505.2,322.6,-0.7,1.8,2471.206,13.28,0.048,126.6
2022-12-17T00:40:03,42.805,6.029,0.0,-0.015,0.019,101.0,102.0,101.0,13.3,1505.2,327.6,-0.8,1.8,2471.238,13.28,0.015,180.0
2022-12-17T00:43:03,42.805,6.029,0.031,-0.026,0.01,101.0,103.0,101.0,13.4,1505.2,325.9,-0.8,1.8,2471.217,13.28,0.04,130.0
2022-12-17T00:46:03,42.805,6.029,0.005,-0.031,-0.008,101.0,102.0,101.0,13.4,1505.2,324.5,-0.8,1.8,2471.245,13.28,0.031,170.8
2022-12-17T00:49:03,42.805,6.029,0.045,-0.039,0.02,101.0,103.0,101.0,13.4,1505.2,326.7,-0.8,1.8,2471.216,13.28,0.059,130.9
2022-12-17T00:52:03,42.805,6.029,0.029,-0.019,0.061,101.0,103.0,101.0,13.4,1505.2,336.0,-0.8,1.8,2471.257,13.28,0.034,123.2
2022-12-17T00:55:03,42.805,6.029,0.034,-0.033,0.012,101.0,103.0,101.0,13.3,1505.2,323.2,-0.8,1.8,2471.241,13.28,0.047,134.1
2022-12-17T00:58:03,42.805,6.029,0.047,-0.031,0.0,99.0,103.0,101.0,13.4,1505.2,323.6,-0.8,1.8,2471.266,13.28,0.056,123.4
2022-12-17T02:04:03,42.805,6.029,0.05,-0.02,0.027,101.0,104.0,101.0,13.4,1505.1,321.2,-0.7,1.9,2471.631,13.27,0.053,111.8
2022-12-17T02:07:03,42.805,6.029,0.04,-0.018,0.039,101.0,103.0,101.0,13.4,1505.2,328.1,-0.8,1.8,2471.528,13.28,0.043,114.2
2022-12-17T02:10:03,42.805,6.029,0.044,-0.057,0.034,101.0,102.0,101.0,13.4,1505.2,319.8,-0.8,1.8,2471.493,13.28,0.072,142.3
2022-12-17T02:13:03,42.805,6.029,0.053,-0.042,0.028,101.0,102.0,100.0,13.4,1505.2,323.4,-0.8,1.8,2471.392,13.28,0.067,128.4
2022-12-17T02:16:03,42.805,6.029,0.032,-0.025,0.016,101.0,103.0,101.0,13.4,1505.2,325.4,-0.8,1.8,2471.371,13.28,0.04,128.0
2022-12-17T02:19:03,42.805,6.029,0.04,-0.017,0.005,100.0,103.0,100.0,13.4,1505.2,319.3,-0.7,1.8,2471.331,13.28,0.043,113.0
2022-12-17T02:22:03,42.805,6.029,0.037,-0.041,-0.007,101.0,103.0,101.0,13.4,1505.2,334.5,-0.8,1.8,2471.295,13.28,0.055,137.9
2022-12-17T02:25:03,42.805,6.029,0.041,-0.012,0.045,100.0,101.0,101.0,13.4,1505.2,329.1,-0.7,1.8,2471.29,13.28,0.042,106.3
2022-12-17T02:28:03,42.805,6.029,0.073,-0.042,0.074,100.0,104.0,101.0,13.4,1505.2,332.7,-0.8,1.8,2471.291,13.28,0.084,119.9
2022-12-17T02:31:03,42.805,6.029,0.032,-0.023,0.04,100.0,102.0,100.0,13.4,1505.2,329.0,-0.8,1.8,2471.238,13.28,0.039,125.7
2022-12-17T02:34:03,42.805,6.029,0.062,-0.023,0.044,100.0,102.0,100.0,13.4,1505.2,323.8,-0.7,1.8,2471.275,13.28,0.066,110.3
2022-12-17T02:37:03,42.805,6.029,0.033,-0.038,0.023,101.0,102.0,101.0,13.3,1505.2,320.7,-0.8,1.8,2471.21,13.28,0.05,139.0
2022-12-17T02:40:03,42.805,6.029,0.036,-0.034,0.004,100.0,102.0,100.0,13.4,1505.2,323.2,-0.7,1.8,2471.241,13.28,0.049,133.4
2022-12-17T02:43:03,42.805,6.029,0.02,-0.039,0.007,101.0,102.0,101.0,13.4,1505.2,327.2,-0.8,1.8,2471.241,13.28,0.043,152.9
2022-12-17T02:46:03,42.805,6.029,0.028,-0.016,0.06,100.0,102.0,101.0,13.3,1505.2,331.7,-0.8,1.8,2471.221,13.28,0.032,119.7
2022-12-17T02:49:03,42.805,6.029,0.051,-0.043,0.015,100.0,102.0,101.0,13.3,1505.2,334.9,-0.8,1.8,2471.236,13.28,0.066,130.1
2022-12-17T02:52:03,42.805,6.029,0.018,-0.024,0.0,101.0,102.0,101.0,13.4,1505.2,329.1,-0.7,1.8,2471.223,13.28,0.03,143.1
2022-12-17T02:55:03,42.805,6.029,0.043,-0.024,0.005,101.0,102.0,101.0,13.4,1505.2,320.3,-0.7,1.8,2471.202,13.28,0.049,119.2
2022-12-17T02:58:03,42.805,6.029,0.033,-0.025,0.02,101.0,102.0,101.0,13.3,1505.2,328.1,-0.8,1.8,2471.215,13.28,0.041,127.1
2022-12-17T03:04:03,42.805,6.029,0.035,-0.036,0.025,102.0,100.0,101.0,13.4,1505.2,329.9,-0.8,1.8,2471.227,13.28,0.05,135.8
2022-12-17T03:07:03,42.805,6.029,0.024,-0.021,0.02,100.0,101.0,101.0,13.4,1505.2,319.3,-0.8,1.8,2471.194,13.28,0.031,131.2
2022-12-17T03:10:03,42.805,6.029,0.045,-0.046,0.012,100.0,103.0,101.0,13.4,1505.2,326.8,-0.7,1.8,2471.237,13.28,0.064,135.6
2022-12-17T03:13:03,42.805,6.029,0.057,-0.038,0.037,101.0,102.0,101.0,13.4,1505.2,323.2,-0.8,1.9,2471.242,13.28,0.068,123.7
2022-12-17T03:16:03,42.805,6.029,0.036,-0.02,0.006,101.0,103.0,101.0,13.4,1505.2,317.4,-0.7,1.8,2471.197,13.28,0.041,119.1
2022-12-17T03:19:03,42.805,6.029,0.031,-0.034,0.03,100.0,104.0,101.0,13.4,1505.2,336.2,-0.8,1.8,2471.235,13.28,0.046,137.6
2022-12-17T03:22:03,42.805,6.029,0.024,-0.033,-0.006,101.0,103.0,101.0,13.3,1505.2,325.3,-0.8,1.9,2471.188,13.28,0.04,144.0
2022-12-17T03:25:03,42.805,6.029,0.035,-0.013,0.023,101.0,102.0,101.0,13.4,1505.2,330.6,-0.8,1.8,2471.234,13.28,0.037,110.4
2022-12-17T03:28:03,42.805,6.029,0.051,-0.025,0.058,101.0,102.0,101.0,13.3,1505.2,326.0,-0.8,1.8,2471.18,13.28,0.056,116.1
2022-12-17T03:31:03,42.805,6.029,0.07,-0.048,0.051,100.0,103.0,101.0,13.4,1505.2,326.7,-0.7,1.8,2471.223,13.28,0.084,124.4
2022-12-17T03:34:03,42.805,6.029,0.043,0.006,0.083,101.0,102.0,101.0,13.4,1505.2,319.3,-0.7,1.8,2471.207,13.28,0.043,82.1
2022-12-17T03:37:03,42.805,6.029,0.036,-0.005,0.035,100.0,102.0,102.0,13.3,1505.2,325.1,-0.8,1.8,2471.228,13.28,0.036,97.9
2022-12-17T03:40:03,42.805,6.029,0.019,-0.047,0.029,100.0,102.0,101.0,13.4,1505.2,331.1,-0.8,1.8,2471.185,13.28,0.05,158.0
2022-12-17T03:43:03,42.805,6.029,0.075,-0.054,0.004,102.0,102.0,100.0,13.3,1505.2,324.2,-0.7,1.8,2471.206,13.28,0.092,125.8
2022-12-17T03:46:03,42.805,6.029,0.008,-0.014,0.01,100.0,102.0,101.0,13.4,1505.2,327.0,-0.7,1.8,2471.189,13.28,0.016,150.3
2022-12-17T03:49:03,42.805,6.029,0.036,-0.025,0.047,101.0,102.0,100.0,13.3,1505.2,324.1,-0.8,1.8,2471.185,13.28,0.043,124.8
2022-12-17T03:52:03,42.805,6.029,0.033,-0.031,-0.011,101.0,102.0,101.0,13.4,1505.2,321.2,-0.7,1.8,2471.19,13.28,0.045,133.2
2022-12-17T03:55:03,42.805,6.029,0.026,-0.016,0.042,101.0,103.0,101.0,13.4,1505.2,324.5,-0.7,1.8,2471.192,13.28,0.03,121.6
2022-12-17T03:58:03,42.805,6.029,0.048,-0.047,0.012,101.0,102.0,101.0,13.4,1505.2,330.7,-0.8,1.8,2471.217,13.28,0.067,134.4
2022-12-17T04:04:03,42.805,6.029,0.052,-0.015,0.053,101.0,102.0,100.0,13.4,1505.2,318.8,-0.8,1.8,2471.253,13.28,0.054,106.1
2022-12-17T04:07:03,42.805,6.029,0.063,-0.028,0.042,101.0,102.0,101.0,13.4,1505.2,318.8,-0.8,1.8,2471.23,13.28,0.068,114.0
2022-12-17T04:10:03,42.805,6.029,0.057,-0.049,0.035,101.0,102.0,101.0,13.4,1505.2,334.8,-0.8,1.8,2471.239,13.28,0.075,130.7
2022-12-17T04:13:03,42.805,6.029,0.041,0.017,0.079,100.0,102.0,101.0,13.4,1505.2,322.5,-0.8,1.8,2471.216,13.28,0.044,67.5
2022-12-17T04:16:03,42.805,6.029,0.053,-0.037,0.032,101.0,102.0,100.0,13.3,1505.2,331.9,-0.8,1.8,2471.236,13.28,0.064,124.9
2022-12-17T04:19:03,42.805,6.029,0.031,-0.035,0.018,101.0,101.0,101.0,13.3,1505.2,327.4,-0.7,1.8,2471.236,13.28,0.046,138.5
2022-12-17T04:22:03,42.805,6.029,0.056,-0.044,0.026,101.0,100.0,101.0,13.3,1505.2,325.1,-0.8,1.8,2471.229,13.28,0.071,128.2
2022-12-17T04:25:03,42.805,6.029,0.049,-0.052,0.05,102.0,104.0,100.0,13.3,1505.2,334.2,-0.8,1.8,2471.21,13.28,0.071,136.7
2022-12-17T04:28:03,42.805,6.029,0.052,-0.038,0.01,100.0,101.0,102.0,13.3,1505.2,320.6,-0.8,1.8,2471.215,13.28,0.064,126.2
2022-12-17T04:31:03,42.805,6.029,0.066,-0.023,0.003,101.0,102.0,100.0,13.4,1505.2,321.2,-0.8,1.8,2471.216,13.28,0.069,109.2
2022-12-17T04:34:03,42.805,6.029,0.035,-0.029,0.033,101.0,102.0,100.0,13.4,1505.2,320.2,-0.8,1.8,2471.19,13.28,0.045,129.6
2022-12-17T04:37:03,42.805,6.029,0.028,-0.044,0.031,100.0,102.0,101.0,13.4,1505.2,330.1,-0.8,1.8,2471.166,13.28,0.052,147.5
2022-12-17T04:40:03,42.805,6.029,0.049,-0.055,0.002,101.0,102.0,101.0,13.4,1505.2,323.9,-0.8,1.8,2471.198,13.28,0.073,138.3
2022-12-17T04:43:03,42.805,6.029,0.0,-0.015,-0.007,100.0,102.0,101.0,13.3,1505.2,331.8,-0.8,1.8,2471.23,13.28,0.015,180.0
2022-12-17T04:46:03,42.805,6.029,0.075,-0.028,0.035,100.0,101.0,102.0,13.4,1505.2,320.1,-0.8,1.8,2471.216,13.28,0.08,110.5
2022-12-17T04:49:03,42.805,6.029,0.018,-0.047,0.008,102.0,99.0,101.0,13.3,1505.2,335.2,-0.8,1.8,2471.165,13.28,0.05,159.0
2022-12-17T04:52:03,42.805,6.029,0.056,-0.023,0.043,100.0,102.0,101.0,13.4,1505.2,330.9,-0.7,1.8,2471.241,13.28,0.06,112.3
2022-12-17T04:55:03,42.805,6.029,0.049,-0.033,0.002,102.0,102.0,101.0,13.4,1505.2,315.9,-0.8,1.8,2471.192,13.28,0.059,124.0
2022-12-17T04:58:03,42.805,6.029,0.055,-0.05,0.016,101.0,102.0,101.0,13.4,1505.2,330.3,-0.8,1.8,2471.202,13.28,0.074,132.3
2022-12-17T05:04:03,42.805,6.029,0.051,-0.018,0.049,101.0,102.0,101.0,13.4,1505.2,324.4,-0.8,1.8,2471.214,13.28,0.054,109.4
2022-12-17T05:07:03,42.805,6.029,0.034,-0.033,0.026,100.0,101.0,101.0,13.4,1505.2,329.7,-0.8,1.8,2471.213,13.28,0.047,134.1
2022-12-17T05:10:03,42.805,6.029,0.029,-0.015,0.033,101.0,102.0,101.0,13.4,1505.2,331.0,-0.8,1.8,2471.252,13.28,0.032,117.4
2022-12-17T05:13:03,42.805,6.029,0.066,-0.047,0.026,101.0,102.0,101.0,13.3,1505.2,321.2,-0.7,1.8,2471.221,13.28,0.081,125.5
2022-12-17T05:16:03,42.805,6.029,0.028,-0.036,0.002,101.0,102.0,101.0,13.4,1505.2,319.0,-0.8,1.8,2471.194,13.28,0.045,142.1
2022-12-17T05:19:03,42.805,6.029,0.053,-0.034,0.053,101.0,101.0,100.0,13.4,1505.2,330.4,-0.7,1.8,2471.178,13.28,0.062,122.7
2022-12-17T05:22:03,42.805,6.029,0.06,-0.032,0.031,101.0,102.0,102.0,13.4,1505.2,328.1,-0.7,1.8,2471.209,13.28,0.067,118.1
2022-12-17T05:25:03,42.805,6.029,0.03,-0.044,0.013,100.0,101.0,102.0,13.3,1505.2,331.3,-0.7,1.8,2471.221,13.28,0.053,145.7
2022-12-17T05:28:03,42.805,6.029,0.046,-0.035,-0.005,101.0,102.0,100.0,13.3,1505.2,331.5,-0.7,1.8,2471.224,13.28,0.057,127.3
2022-12-17T05:31:03,42.805,6.029,0.082,-0.024,0.049,101.0,101.0,101.0,13.3,1505.2,320.2,-0.8,1.8,2471.202,13.28,0.085,106.3
2022-12-17T05:34:03,42.805,6.029,0.04,-0.05,0.021,102.0,101.0,101.0,13.3,1505.2,329.9,-0.8,1.8,2471.172,13.28,0.064,141.3
2022-12-17T05:37:03,42.805,6.029,0.045,-0.076,-0.01,102.0,103.0,100.0,13.3,1505.2,336.6,-0.8,1.8,2471.225,13.28,0.088,149.4
2022-12-17T05:40:03,42.805,6.029,0.047,-0.042,0.011,101.0,102.0,100.0,13.3,1505.2,328.8,-0.8,1.8,2471.2,13.28,0.063,131.8
2022-12-17T05:43:03,42.805,6.029,0.031,-0.02,0.033,101.0,101.0,101.0,13.3,1505.2,336.5,-0.8,1.8,2471.174,13.28,0.036,122.8
2022-12-17T05:46:03,42.805,6.029,0.024,-0.028,0.026,100.0,102.0,101.0,13.4,1505.2,324.4,-0.8,1.8,2471.192,13.28,0.036,139.4
2022-12-17T05:49:03,42.805,6.029,0.061,-0.043,0.033,102.0,101.0,100.0,13.3,1505.2,327.3,-0.8,1.8,2471.175,13.28,0.074,125.2
2022-12-17T05:52:03,42.805,6.029,0.046,-0.058,-0.016,99.0,101.0,102.0,13.3,1505.2,330.0,-0.8,1.8,2471.209,13.28,0.074,141.6
2022-12-17T05:55:03,42.805,6.029,0.019,-0.041,-0.02,101.0,102.0,102.0,13.4,1505.2,331.2,-0.8,1.8,2471.217,13.28,0.045,155.1
2022-12-17T05:58:03,42.805,6.029,0.04,-0.047,0.021,101.0,101.0,101.0,13.4,1505.2,330.3,-0.8,1.8,2471.188,13.28,0.061,139.6
2022-12-17T06:04:03,42.805,6.029,0.05,-0.048,0.015,101.0,101.0,101.0,13.4,1505.2,336.1,-0.8,1.8,2471.243,13.28,0.069,133.8
2022-12-17T06:07:03,42.805,6.029,0.025,-0.052,-0.025,101.0,101.0,101.0,13.4,1505.2,323.4,-0.7,1.8,2471.22,13.28,0.057,154.3
2022-12-17T06:10:03,42.805,6.029,0.043,-0.035,0.002,101.0,102.0,101.0,13.3,1505.2,318.3,-0.8,1.8,2471.219,13.28,0.055,129.1
2022-12-17T06:13:03,42.805,6.029,0.035,-0.044,0.026,101.0,102.0,101.0,13.4,1505.2,324.3,-0.8,1.8,2471.185,13.28,0.056,141.5
2022-12-17T06:16:03,42.805,6.029,0.04,-0.05,0.034,101.0,102.0,101.0,13.4,1505.2,321.7,-0.8,1.8,2471.166,13.28,0.064,141.3
2022-12-17T06:19:03,42.805,6.029,0.022,-0.055,0.009,101.0,101.0,101.0,13.4,1505.2,335.1,-0.8,1.8,2471.229,13.28,0.059,158.2
2022-12-17T06:22:03,42.805,6.029,0.035,-0.025,0.029,101.0,101.0,101.0,13.4,1505.2,325.8,-0.7,1.8,2471.191,13.28,0.043,125.5
2022-12-17T06:25:03,42.805,6.029,0.038,-0.03,0.03,101.0,103.0,101.0,13.4,1505.2,322.9,-0.8,1.8,2471.209,13.28,0.048,128.3
2022-12-17T06:28:05,42.805,6.029,0.022,-0.027,0.022,101.0,102.0,101.0,13.3,1505.2,334.1,-0.8,1.8,2471.227,13.28,0.034,140.8
2022-12-17T06:31:03,42.805,6.029,0.026,-0.06,0.004,102.0,102.0,101.0,13.4,1505.2,331.6,-0.8,1.8,2471.174,13.28,0.065,156.6
2022-12-17T06:34:03,42.805,6.029,0.042,-0.034,0.023,101.0,101.0,101.0,13.4,1505.2,334.5,-0.7,1.8,2471.193,13.28,0.054,129.0
2022-12-17T06:37:03,42.805,6.029,0.059,-0.045,0.045,100.0,101.0,102.0,13.4,1505.2,328.1,-0.7,1.8,2471.187,13.28,0.074,127.3
2022-12-17T06:40:03,42.805,6.029,0.034,-0.037,0.022,101.0,101.0,101.0,13.3,1505.2,326.9,-0.8,1.8,2471.22,13.28,0.05,137.4
2022-12-17T06:43:03,42.805,6.029,0.037,-0.046,0.002,101.0,101.0,101.0,13.4,1505.2,327.0,-0.8,1.8,2471.157,13.28,0.059,141.2
2022-12-17T06:46:03,42.805,6.029,0.044,-0.039,0.047,101.0,101.0,102.0,13.3,1505.2,333.7,-0.8,1.8,2471.14,13.28,0.058,131.6
2022-12-17T06:49:03,42.805,6.029,0.034,-0.031,0.024,100.0,103.0,101.0,13.4,1505.2,321.4,-0.8,1.8,2471.171,13.28,0.046,132.4
2022-12-17T06:52:03,42.805,6.029,0.04,-0.04,0.021,102.0,102.0,101.0,13.4,1505.2,330.8,-0.8,1.8,2471.198,13.28,0.056,135.0
2022-12-17T06:55:03,42.805,6.029,0.016,-0.046,0.021,101.0,101.0,101.0,13.4,1505.2,316.0,-0.8,1.8,2471.176,13.28,0.048,160.8
2022-12-17T06:58:03,42.805,6.029,0.044,-0.042,0.027,100.0,101.0,101.0,13.3,1505.2,321.6,-0.8,1.8,2471.159,13.28,0.06,133.7
2022-12-17T07:04:03,42.805,6.029,0.035,-0.027,0.018,100.0,103.0,101.0,13.4,1505.2,328.1,-0.8,1.8,2471.203,13.28,0.044,127.7
2022-12-17T07:07:03,42.805,6.029,0.03,-0.023,0.008,101.0,102.0,101.0,13.4,1505.2,316.0,-0.8,1.8,2471.217,13.28,0.037,127.5
2022-12-17T07:10:03,42.805,6.029,0.042,-0.04,0.025,100.0,102.0,102.0,13.4,1505.2,331.9,-0.7,1.8,2471.185,13.28,0.057,133.6
2022-12-17T07:13:03,42.805,6.029,0.031,-0.032,-0.016,102.0,102.0,101.0,13.3,1505.2,327.9,-0.8,1.8,2471.233,13.28,0.044,135.9
2022-12-17T07:16:03,42.805,6.029,0.021,-0.013,0.021,101.0,101.0,101.0,13.4,1505.2,323.2,-0.8,1.8,2471.206,13.28,0.024,121.8
2022-12-17T07:19:03,42.805,6.029,0.043,-0.039,0.0,102.0,101.0,102.0,13.4,1505.2,325.5,-0.8,1.8,2471.239,13.28,0.058,132.2
2022-12-17T07:22:03,42.805,6.029,0.041,-0.035,0.025,101.0,102.0,101.0,13.4,1505.2,334.1,-0.8,1.8,2471.197,13.28,0.053,130.5
2022-12-17T07:25:03,42.805,6.029,0.033,-0.021,0.02,103.0,102.0,100.0,13.4,1505.2,327.2,-0.7,1.8,2471.164,13.28,0.039,122.5
2022-12-17T07:28:03,42.805,6.029,0.03,-0.013,0.039,102.0,102.0,101.0,13.3,1505.2,328.3,-0.7,1.8,2471.179,13.28,0.032,113.4
2022-12-17T07:31:03,42.805,6.029,0.045,-0.036,0.004,101.0,101.0,102.0,13.4,1505.2,320.1,-0.7,1.8,2471.179,13.28,0.057,128.7
2022-12-17T07:34:03,42.805,6.029,0.045,-0.02,0.018,101.0,101.0,101.0,13.4,1505.2,317.6,-0.7,1.8,2471.205,13.28,0.049,114.0
2022-12-17T07:37:03,42.805,6.029,0.022,-0.013,0.01,101.0,101.0,102.0,13.4,1505.2,323.1,-0.8,1.8,2471.223,13.28,0.025,120.6
2022-12-17T07:40:03,42.805,6.029,0.038,-0.037,0.049,101.0,102.0,100.0,13.3,1505.2,329.5,-0.8,1.8,2471.184,13.28,0.053,134.2
2022-12-17T07:43:03,42.805,6.029,0.047,-0.012,0.04,102.0,101.0,102.0,13.4,1505.2,324.1,-0.8,1.8,2471.189,13.28,0.048,104.3
2022-12-17T07:46:03,42.805,6.029,0.025,-0.005,0.029,101.0,102.0,101.0,13.3,1505.2,323.6,-0.7,1.8,2471.184,13.28,0.025,101.3
2022-12-17T07:49:03,42.805,6.029,0.02,-0.032,-0.001,102.0,102.0,101.0,13.4,1505.2,322.9,-0.7,1.8,2471.207,13.28,0.037,148.0
2022-12-17T07:52:03,42.805,6.029,0.033,-0.04,0.008,101.0,103.0,101.0,13.4,1505.2,329.4,-0.8,1.8,2471.186,13.28,0.051,140.5
2022-12-17T07:55:03,42.805,6.029,0.025,-0.019,0.034,101.0,102.0,101.0,13.4,1505.2,334.2,-0.7,1.8,2471.173,13.28,0.031,127.2
2022-12-17T07:58:03,42.805,6.029,0.053,-0.036,0.026,102.0,102.0,101.0,13.4,1505.2,325.9,-0.8,1.8,2471.195,13.28,0.064,124.2
2022-12-17T08:04:03,42.805,6.029,0.041,-0.042,0.039,101.0,102.0,101.0,13.3,1505.2,334.1,-0.8,1.8,2471.209,13.28,0.058,135.7
2022-12-17T08:07:03,42.805,6.029,0.027,-0.023,0.035,101.0,102.0,101.0,13.3,1505.2,334.0,-0.8,1.8,2471.19,13.28,0.035,130.4
2022-12-17T08:10:03,42.805,6.029,0.025,-0.028,0.025,101.0,102.0,100.0,13.3,1505.2,325.4,-0.7,1.8,2471.255,13.28,0.037,138.2
2022-12-17T08:13:03,42.805,6.029,0.049,-0.043,-0.038,102.0,102.0,101.0,13.3,1505.2,315.4,-0.8,1.8,2471.219,13.28,0.065,131.3
2022-12-17T08:16:03,42.805,6.029,0.02,-0.02,0.019,102.0,103.0,101.0,13.4,1505.2,333.7,-0.8,1.8,2471.239,13.28,0.028,135.0
2022-12-17T08:19:03,42.805,6.029,0.044,-0.047,-0.026,101.0,103.0,101.0,13.4,1505.2,324.7,-0.8,1.8,2471.185,13.28,0.064,136.9
2022-12-17T08:22:03,42.805,6.029,0.037,-0.033,0.031,102.0,102.0,102.0,13.3,1505.2,327.4,-0.7,1.8,2471.198,13.28,0.049,131.7
2022-12-17T08:25:03,42.805,6.029,0.031,-0.027,0.014,102.0,102.0,101.0,13.4,1505.2,320.7,-0.8,1.8,2471.205,13.28,0.041,131.1
2022-12-17T08:28:03,42.805,6.029,0.045,-0.035,0.003,102.0,102.0,101.0,13.4,1505.2,324.8,-0.8,1.8,2471.182,13.28,0.057,127.9
2022-12-17T08:31:03,42.805,6.029,0.026,-0.019,0.035,102.0,102.0,102.0,13.3,1505.2,332.7,-0.7,1.8,2471.216,13.28,0.032,126.2
2022-12-17T08:34:03,42.805,6.029,0.032,-0.038,0.017,102.0,102.0,102.0,13.3,1505.2,328.6,-0.8,1.8,2471.227,13.28,0.049,139.9
2022-12-17T08:37:03,42.805,6.029,0.022,-0.02,0.021,102.0,102.0,102.0,13.3,1505.2,327.0,-0.7,1.8,2471.239,13.28,0.029,132.3
2022-12-17T08:40:03,42.805,6.029,0.017,-0.034,0.015,102.0,103.0,102.0,13.4,1505.2,335.5,-0.8,1.8,2471.181,13.28,0.038,153.4
2022-12-17T08:43:03,42.805,6.029,0.033,-0.028,0.013,102.0,102.0,102.0,13.4,1505.2,325.6,-0.8,1.8,2471.228,13.28,0.043,130.3
2022-12-17T08:46:03,42.805,6.029,0.018,-0.032,0.021,102.0,102.0,102.0,13.3,1505.2,326.7,-0.8,1.8,2471.201,13.28,0.036,150.6
2022-12-17T08:49:03,42.805,6.029,0.012,-0.023,0.037,102.0,102.0,102.0,13.3,1505.2,322.1,-0.8,1.8,2471.241,13.28,0.025,152.4
2022-12-17T08:52:03,42.805,6.029,0.048,-0.054,-0.01,102.0,101.0,101.0,13.4,1505.2,328.6,-0.8,1.8,2471.205,13.28,0.072,138.4
2022-12-17T08:55:03,42.805,6.029,0.048,-0.029,0.023,102.0,102.0,101.0,13.4,1505.2,319.2,-0.8,1.8,2471.212,13.28,0.056,121.1
2022-12-17T08:58:03,42.805,6.029,0.045,-0.04,0.022,101.0,102.0,102.0,13.3,1505.2,329.7,-0.8,1.8,2471.23,13.28,0.06,131.6
2022-12-17T09:04:03,42.805,6.029,0.032,-0.031,0.005,101.0,102.0,101.0,13.4,1505.2,323.5,-0.8,1.9,2471.266,13.28,0.044,134.1
2022-12-17T09:07:03,42.805,6.029,0.03,-0.029,0.018,102.0,102.0,101.0,13.3,1505.2,319.0,-0.8,1.8,2471.253,13.28,0.041,134.0
2022-12-17T09:10:03,42.805,6.029,0.029,-0.019,0.022,101.0,102.0,101.0,13.4,1505.2,332.6,-0.8,1.8,2471.275,13.28,0.034,123.2
2022-12-17T09:13:03,42.805,6.029,0.023,-0.024,0.02,102.0,103.0,101.0,13.4,1505.2,320.7,-0.7,1.8,2471.275,13.28,0.033,136.2
2022-12-17T09:16:03,42.805,6.029,0.045,-0.014,0.034,101.0,101.0,102.0,13.3,1505.2,328.0,-0.8,1.8,2471.239,13.28,0.047,107.3
2022-12-17T09:19:03,42.805,6.029,0.035,-0.042,0.001,102.0,102.0,101.0,13.4,1505.2,322.5,-0.7,1.8,2471.288,13.28,0.054,140.2
2022-12-17T09:22:03,42.805,6.029,0.039,-0.038,-0.012,101.0,102.0,101.0,13.4,1505.2,320.7,-0.8,1.8,2471.234,13.28,0.054,134.3
2022-12-17T09:25:03,42.805,6.029,0.02,-0.035,0.033,101.0,102.0,102.0,13.3,1505.2,336.4,-0.8,1.8,2471.283,13.28,0.04,150.3
2022-12-17T09:28:03,42.805,6.029,0.031,-0.029,0.049,101.0,101.0,101.0,13.3,1505.2,321.0,-0.8,1.8,2471.256,13.28,0.042,133.1
2022-12-17T09:31:03,42.805,6.029,0.025,-0.029,0.025,102.0,102.0,102.0,13.3,1505.2,327.3,-0.8,1.8,2471.246,13.28,0.038,139.2
2022-12-17T09:34:03,42.805,6.029,0.031,-0.028,0.015,101.0,102.0,101.0,13.4,1505.2,334.8,-0.7,1.8,2471.279,13.29,0.041,132.1
2022-12-17T09:37:03,42.805,6.029,0.039,-0.035,0.006,102.0,102.0,101.0,13.4,1505.2,316.0,-0.8,1.8,2471.263,13.28,0.052,131.9
2022-12-17T09:40:03,42.805,6.029,0.036,-0.033,0.023,101.0,101.0,100.0,13.4,1505.2,323.7,-0.8,1.8,2471.252,13.28,0.048,132.5
2022-12-17T09:43:03,42.805,6.029,0.045,-0.034,0.02,102.0,102.0,102.0,13.3,1505.2,329.3,-0.8,1.8,2471.287,13.28,0.056,127.1
2022-12-17T09:46:03,42.805,6.029,0.027,-0.021,0.026,101.0,102.0,101.0,13.4,1505.2,321.6,-0.8,1.8,2471.248,13.28,0.034,127.9
2022-12-17T09:49:03,42.805,6.029,0.034,-0.037,0.04,102.0,101.0,102.0,13.4,1505.2,327.2,-0.8,1.8,2471.248,13.28,0.05,137.4
2022-12-17T09:52:03,42.805,6.029,0.026,-0.024,0.051,101.0,102.0,101.0,13.3,1505.2,322.2,-0.7,1.8,2471.244,13.28,0.035,132.7
2022-12-17T09:55:03,42.805,6.029,0.02,-0.014,0.037,103.0,101.0,101.0,13.4,1505.2,318.2,-0.8,1.8,2471.243,13.28,0.024,125.0
2022-12-17T09:58:03,42.805,6.029,0.003,-0.037,0.001,101.0,102.0,101.0,13.3,1505.2,333.4,-0.8,1.8,2471.277,13.28,0.037,175.4
2022-12-17T10:04:03,42.805,6.029,0.028,-0.028,0.018,101.0,101.0,102.0,13.3,1505.2,317.4,-0.8,1.8,2471.293,13.28,0.039,135.0
2022-12-17T10:07:03,42.805,6.029,0.032,-0.003,0.031,102.0,101.0,101.0,13.3,1505.2,320.2,-0.8,1.8,2471.292,13.28,0.032,95.4
2022-12-17T10:10:03,42.805,6.029,0.024,-0.036,-0.015,100.0,102.0,101.0,13.4,1505.2,334.1,-0.8,1.8,2471.29,13.28,0.043,146.3
2022-12-17T10:13:03,42.805,6.029,0.015,-0.016,0.037,103.0,101.0,101.0,13.4,1505.2,330.8,-0.8,1.8,2471.287,13.28,0.021,136.9
2022-12-17T10:16:03,42.805,6.029,0.018,-0.016,0.047,102.0,101.0,102.0,13.3,1505.2,330.0,-0.8,1.8,2471.265,13.28,0.024,131.6
2022-12-17T10:19:03,42.805,6.029,0.0,-0.01,0.03,102.0,103.0,101.0,13.4,1505.2,333.0,-0.7,1.9,2471.314,13.28,0.01,180.0
2022-12-17T10:22:03,42.805,6.029,0.035,-0.022,0.016,101.0,101.0,101.0,13.4,1505.2,321.8,-0.7,1.8,2471.293,13.28,0.041,122.2
2022-12-17T10:25:03,42.805,6.029,0.015,-0.006,0.037,103.0,103.0,100.0,13.3,1505.2,337.4,-0.8,1.8,2471.255,13.28,0.016,111.8
2022-12-17T10:28:03,42.805,6.029,0.008,-0.029,-0.014,99.0,101.0,102.0,13.4,1505.2,332.7,-0.8,1.8,2471.215,13.28,0.03,164.6
2022-12-17T10:31:03,42.805,6.029,0.012,-0.022,0.045,102.0,101.0,100.0,13.3,1505.2,337.4,-0.7,1.8,2471.261,13.28,0.025,151.4
2022-12-17T10:34:03,42.805,6.029,0.02,-0.034,0.004,102.0,102.0,101.0,13.4,1505.2,321.7,-0.8,1.8,2471.33,13.28,0.039,149.5
2022-12-17T10:37:03,42.805,6.029,0.025,-0.035,0.032,101.0,102.0,101.0,13.4,1505.2,329.0,-0.7,1.8,2471.299,13.28,0.043,144.5
2022-12-17T10:40:03,42.805,6.029,0.019,-0.03,0.042,102.0,101.0,101.0,13.4,1505.2,332.7,-0.8,1.8,2471.31,13.28,0.035,147.7
2022-12-17T10:43:03,42.805,6.029,0.023,-0.043,0.016,101.0,102.0,101.0,13.4,1505.2,325.6,-0.7,1.8,2471.309,13.29,0.048,151.9
2022-12-17T10:46:03,42.805,6.029,0.021,-0.022,0.009,102.0,102.0,100.0,13.4,1505.2,335.2,-0.8,1.9,2471.279,13.28,0.03,136.3
2022-12-17T10:49:03,42.805,6.029,0.016,-0.021,0.005,102.0,101.0,101.0,13.4,1505.2,330.5,-0.7,1.8,2471.301,13.28,0.026,142.7
2022-12-17T10:52:03,42.805,6.029,0.039,-0.04,0.003,102.0,102.0,100.0,13.4,1505.2,334.9,-0.8,1.8,2471.276,13.28,0.055,135.7
2022-12-17T10:55:03,42.805,6.029,0.045,-0.029,0.01,100.0,101.0,101.0,13.3,1505.2,324.2,-0.8,1.8,2471.293,13.28,0.053,122.8
2022-12-17T10:58:03,42.805,6.029,0.036,-0.023,0.019,101.0,102.0,101.0,13.3,1505.2,334.0,-0.7,1.8,2471.318,13.28,0.042,122.6